User: anonymous   Login
Location: The Rolnick Observatory
(41.1711°N, 73.3275°W)
Time: 09:26:47
(UTC-04:00)
Language:

N. Korean satellite - Orbit

View from above orbital plane
View from above orbital plane
View from above satellite
View from above satellite

Ground track
Ground track

The orbit data is extracted from the following two-line orbital elements,

1 39026U 12072A   19077.17658943  .00001676  00000-0  63481-4 0  9995
2 39026  97.2117  83.3372 0040114  71.0638 289.4943 15.27536524347474
Epoch (UTC): 18 March 2019 04:14:17
Eccentricity: 0.0040114
inclination: 97.2117°
perigee height: 455 km
apogee height: 511 km
right ascension of ascending node: 83.3372°
argument of perigee: 71.0638°
revolutions per day: 15.27536524
mean anomaly at epoch: 289.4943°
orbit number at epoch: 34747

The dashed part of the orbit path shows where the satellite is in the earth's shadow,  

DLR